Regional Weather Roundup
Issued by NWS Austin/San Antonio, TX

Home | Current Version | Previous Version | Text Only | Print | Product List | Glossary On
Versions: 1 2 3 4 5 6 7 8 9 10 11 12 13 14 15 16 17 18 19 20 21 22 23 24 25 26 27 28 29 30 31 32 33 34 35 36 37 38 39 40 41 42 43 44 45 46 47 48 49 50
000
ASUS44 KEWX 200901
RWREWX
SOUTH TEXAS REGIONAL WEATHER ROUNDUP
NATIONAL WEATHER SERVICE AUSTIN/SAN ANTONIO TX
400 AM CDT WED SEP 20 2017

NOTE: "FAIR" INDICATED FEW OR NO CLOUDS BELOW 12,000 FEET WITH NO
SIGNIFICANT WEATHER AND/OR OBSTRUCTIONS TO VISIBILITY.

* - THESE STATIONS ARE NOT NWS OR FAA STATIONS...AND ARE NOT SUBJECT
    TO NWS AND FAA QUALITY CONTROL.

TXZ171-172-183>190-201000-
TEXAS HILL COUNTRY AND EDWARDS PLATEAU

CITY           SKY/WX    TMP DP  RH WIND       PRES   REMARKS
JUNCTION       CLEAR     74  70  87 CALM      29.87F
*LLANO         CLEAR     73  72  94 E5        29.90F
BURNET         PTCLDY    76  71  85 S8        29.91S
*HORSESHOE BAY CLEAR     76  72  86 S5        29.89S
*KERRVILLE     CLOUDY    76  73  90 SE10      29.91F
*FREDERICKSBRG CLEAR     74  68  81 S6        29.91S
*ROCKSPRINGS   NOT AVBL
*BOERNE STAGE  CLOUDY    73  70  88 S8        29.92S
*CASTROVILLE   MOCLDY    76  72  85 SE5       29.89F
HONDO          MOCLDY    78  73  84 SE8       29.88S
*UVALDE        PTCLDY    75  72  89 E5        29.88S
DEL RIO        CLEAR     73  67  81 E6        29.83F
LAUGHLIN AFB   CLEAR     72  67  87 E6        29.84F
CARRIZO SPRGS  CLEAR     75  73  94 E5        29.83F
*EAGLE PASS    SUNNY     72  66  83 CALM      29.84F
$$

TXZ173-191>194-202-209-217>225-228-201000-
CENTRAL AND SOUTH CENTRAL TEXAS

CITY           SKY/WX    TMP DP  RH WIND       PRES   REMARKS
GEORGETOWN     MOCLDY    78  73  84 S7        29.91S
AUSTIN/BERGSTM PTCLDY    78  75  90 S8        29.87F
AUSTIN/MABRY   CLOUDY    78  74  87 S3        29.89S
*AUSTIN/EXEC   CLOUDY    75  75 100 CALM      29.90R
*LAGO VISTA    CLOUDY    76  73  90 S6        29.91S
SAN MARCOS     CLOUDY    77  75  93 S6        29.89S
NEW BRAUNFELS  CLOUDY    79  75  87 S10       29.87F
RANDOLPH AFB   CLOUDY    77  77 100 S7        29.88F
PT SAN ANTONIO CLOUDY    78  74  89 SE9       29.86F
SAN ANTONIO    CLOUDY    78  74  87 S14       29.88F
STINSON FIELD  CLOUDY    78  75  90 SE6       29.85F
*LA GRANGE     PTCLDY    77  76  98 S5        29.86F
*GIDDINGS      CLOUDY    76  73  93 S7        29.90R
*GONZALES      CLEAR     77  77 100 SE7       29.87F
$$

TXZ163>164-176>182-195>201-210>213-226-227-235-201000-
SOUTHEAST TEXAS

CITY           SKY/WX    TMP DP  RH WIND       PRES   REMARKS
COLLEGE STN    CLOUDY    79  76  90 S6        29.89S
*BRYAN         CLOUDY    78  78 100 S7        29.91S
*CALDWELL      MOCLDY    77  75  93 S5        29.90S
*CROCKETT      MOCLDY    77  75  94 S8        29.94S
*BRENHAM       CLOUDY    79  78  95 S6        29.90R
HUNTSVILLE     CLOUDY    78  75  90 S7        29.90S
CONROE         MOCLDY    76  74  93 SE3       29.90F FOG
HOUSTON BUSH   CLOUDY    80  76  87 S3        29.89S
HOUSTON HOBBY  CLOUDY    80  76  87 S5        29.89S
*HOUSTON SW AP CLOUDY    74  74  98 CALM      29.90S FOG
PEARLAND       CLOUDY    81  76  84 CALM      29.91S
HOUSTON HOOKS  CLOUDY    80  77  90 CALM      29.89F
ELLINGTON FLD  NOT AVBL
SUGAR LAND     CLOUDY    78  76  93 S5        29.89S
*HOUSTON EXEC  CLOUDY    77  75  94 S5        29.91S FOG
*CLEVELAND MUN CLOUDY    76  75  96 CALM      29.91F FOG
*WHARTON       FOG       73  72  96 CALM      29.90S VSB 1/4
*COLUMBUS      MOCLDY    76  75  94 CALM      29.90S FOG
*EAGLE LAKE    SUNNY     77  77 100 SE5       29.89S FOG
$$

TXZ214>216-236>238-201000-
THE UPPER TEXAS COAST

CITY           SKY/WX    TMP DP  RH WIND       PRES   REMARKS
*ORANGE        CLEAR     79  78  98 S6        29.92S
PORT ARTHUR    CLEAR     79  76  90 S7        29.90F
GALVESTON      PTCLDY    84  79  85 S15       29.90F HX  96
ANGLETON       PTCLDY    78  75  90 S6        29.90R
*BAY CITY      MOCLDY    77  76  95 CALM      29.90R FOG
PALACIOS       MOCLDY    81  76  84 S10       29.88R
$$

TXZ229>234-239>247-201000-
TEXAS COASTAL BEND AND RIO GRANDE PLAINS

CITY           SKY/WX    TMP DP  RH WIND       PRES   REMARKS
VICTORIA       PTCLDY    77  75  93 E5        29.88S
*BEEVILLE      PTCLDY   N/A N/A N/A S6        29.87F
ROCKPORT       PTCLDY    83  76  79 S9        29.87S HX  91
*PORT ARANSAS  NOT AVBL
*PORT LAVACA   PTCLDY    77  74  91 S5        29.88F
*INGLESIDE     PTCLDY    82  77  83 MISG      29.87F HX  91
CORPUS CHRISTI MOCLDY    79  77  94 S8        29.86F
CORPUS NAS     CLOUDY    84  77  79 S17G24    29.86F HX  94
*ROBSTOWN      PTCLDY    80  76  89 S8        29.87F
ALICE          CLEAR     79  76  90 S9        29.86F
KINGSVILLE NAS PTCLDY    79  79 100 S7        29.86F
COTULLA        CLEAR     79  73  82 SE8       29.84F
*FAITH RANCH   CLEAR     82  70  65 SE14      29.83F
LAREDO         CLEAR     82  73  74 SE13      29.84F
$$

TXZ248>255-201000-
DEEP SOUTH TEXAS

CITY           SKY/WX    TMP DP  RH WIND       PRES   REMARKS
BROWNSVILLE    PTCLDY    80  78  94 S6        29.87F
PORT ISABEL    PTCLDY    82  77  84 S9        29.86F HX  90
*SOUTH PADRE   NOT AVBL
HARLINGEN      PTCLDY    80  78  94 S9        29.85F
*HEBBRONVILLE  CLOUDY    78  73  87 S7        29.88S
MCALLEN        PTCLDY    83  77  82 SE13      29.85F HX  92
*WESLACO       PTCLDY    80  75  84 S7        29.85S
FALFURRIAS     CLEAR    -38  32 100 SE3       29.86S
EDINBURG       PTCLDY    81  75  82 SE7       29.86F
*ZAPATA        PTCLDY    81  73  75 SE9       29.83F
$$

TXZ213>215-236>238-242>244-246-247-251-254-255-201000-
CMAN STATIONS

STATION/POSITION TIME  TEMP    WIND        PRES    WAVE
                       AIR SEA DIR/SP/G            HT/PER
                 (UTC) (F)     (DEG/KT/KT) (MB)    (FT/S)
SABINE PASS      0824   81 84  170/  8/ 12 1014.3
SEA RIM ST PARK  0800   82     170/ 13/ 16 1013.4
NORTH JETTY/GLS  0824      84  160/ 18/ 20 1012.0
EAGLE POINT      0824   83 85  180/ 16/ 18 1012.5
MORGANS POINT    0824   83 82  160/  7/ 11 1012.2
PORT O`CONNOR    0824   83 84  170/ 17/ 19 1011.3
MALAQUITE BEACH  0824   83 85  150/ 18/ 21 1010.7
BAFFIN BAY       0824   83 83  160/ 15/ 18 1011.3
PORT ISABEL      0824   82 85  160/ 12/ 15 1011.5
$$




USA.gov is the U.S. government's official web portal to all federal, state and local government web resources and services.